Orbital Elements at Epoch 2459200.5 (2020-Dec-17.0) TDB
Reference: JPL 25 (heliocentric ecliptic J2000)
Element | Value | Uncertainty (1-sigma) | Units |
e | .1583521698905287 | 3.9521e-08 | |
a | 2.408876118156112 | 1.4385e-08 | au |
q | 2.027425357848618 | 9.7249e-08 | au |
i | 2.562126762257489 | 4.1668e-06 | deg |
node | 172.608734102334 | 9.1528e-05 | deg |
peri | 100.2105240700375 | 9.3407e-05 | deg |
M | 238.2968696443926 | 2.2827e-05 | deg |
tp | 2459662.156945813875 (2022-Mar-23.65694581) | 8.9385e-05 | TDB |
period | 1365.589364935654 3.74 | 1.2232e-05 3.349e-08 | d yr |
n | .2636224396906921 | 2.3614e-09 | deg/d |
Q | 2.790326878463605 | 1.6663e-08 | au |
|
| | Orbit Determination Parameters
Additional Information
|